Regional Weather Roundup
Issued by NWS Goodland, KS

Home | Current Version | Previous Version | Graphics & Text | Print | Product List | Glossary On
Versions: 1 2 3 4 5 6 7 8 9 10 11 12 13 14 15 16 17 18 19 20 21 22 23 24 25 26 27 28 29 30 31 32 33 34 35 36 37 38 39 40 41 42 43 44 45 46 47 48 49 50
000
ASUS43 KGLD 201508
RWRGLD

GOODLAND FORECAST AREA HOURLY WEATHER ROUNDUP
NATIONAL WEATHER SERVICE GOODLAND KS
800 AM MST TUE FEB 20 2018

...OFFICIAL OBSERVATIONS...

CITY           SKY/WX    TMP DP  RH WIND       PRES   REMARKS
GOODLAND KS    SUNNY      3  -4  72 NW15      30.05R WCI -16
HILL CITY KS   CLOUDY    14   3  61 NW18G29   30.14R WCI  -3
IMPERIAL NEB   SUNNY      3  -4  72 NW15      30.06R WCI -16
MCCOOK NEB     SUNNY      7  -1  70 NW15      30.11R WCI -10
AKRON CO       SUNNY     -5  -8  87 W8        29.96R
BURLINGTON CO  SUNNY      0  -6  76 NW13      30.01R WCI -18
LIMON CO       MOSUNNY   -2  -6  83 NW10      29.93R WCI -19
$$

...UNOFFICIAL OBSERVATIONS...

CITY           SKY/WX    TMP DP  RH WIND       PRES   REMARKS
COLBY KS       PTSUNNY    7   1  78 N20G26    30.07F WCI -13
LENORA KS        N/A      3  32 100 CALM        N/A
NORTON KS      MOSUNNY   10  -2  56 N18       30.11  WCI  -8
SHARON SPRINGS   N/A      5  -1  75 N17G24      N/A  WCI -14
TRENTON NEB      N/A      3  32 100 CALM        N/A
KIT CARSON CO    N/A      1  -5  76 MISG        N/A
$$




USA.gov is the U.S. government's official web portal to all federal, state and local government web resources and services.